Time,TemperatureF,DewpointF,PressureIn,WindDirection,WindDirectionDegrees,WindSpeedMPH,WindSpeedGustMPH,Humidity,HourlyPrecipIn,Conditions,Clouds,dailyrainin,SoftwareType,DateUTC
2013-05-10 00:04:00,66.2,57.7,30.04,West,281,0.0,0.0,74,0.00,,,0.00,WeatherCatV1.15B25,2013-05-10 07:04:00,
2013-05-10 00:09:00,66.2,57.7,30.04,West,281,0.0,0.0,74,0.00,,,0.00,WeatherCatV1.15B25,2013-05-10 07:09:00,
2013-05-10 00:14:00,66.2,57.7,30.04,West,281,0.0,0.0,74,0.00,,,0.00,WeatherCatV1.15B25,2013-05-10 07:14:00,
2013-05-10 00:19:00,66.1,57.6,30.04,WNW,282,0.0,0.0,74,0.00,,,0.00,WeatherCatV1.15B25,2013-05-10 07:19:00,
2013-05-10 00:24:00,66.0,57.5,30.04,West,281,0.0,0.0,74,0.00,,,0.00,WeatherCatV1.15B25,2013-05-10 07:24:00,
2013-05-10 00:29:00,65.9,57.4,30.05,West,281,0.0,0.0,74,0.00,,,0.00,WeatherCatV1.15B25,2013-05-10 07:29:00,
2013-05-10 00:34:00,65.7,57.2,30.05,WNW,282,0.0,0.0,74,0.00,,,0.00,WeatherCatV1.15B25,2013-05-10 07:34:00,
2013-05-10 00:39:00,65.6,57.5,30.05,West,279,0.0,0.0,75,0.00,,,0.00,WeatherCatV1.15B25,2013-05-10 07:39:00,
2013-05-10 00:44:00,65.4,57.3,30.05,West,272,0.0,0.0,75,0.00,,,0.00,WeatherCatV1.15B25,2013-05-10 07:44:00,
2013-05-10 00:49:00,65.3,57.2,30.05,West,273,0.0,0.0,75,0.00,,,0.00,WeatherCatV1.15B25,2013-05-10 07:49:00,
2013-05-10 00:54:00,65.1,57.3,30.05,West,273,0.0,1.0,76,0.00,,,0.00,WeatherCatV1.15B25,2013-05-10 07:54:00,
2013-05-10 00:59:00,64.9,57.1,30.05,West,272,0.0,0.0,76,0.00,,,0.00,WeatherCatV1.15B25,2013-05-10 07:59:00,
2013-05-10 01:04:00,64.8,57.0,30.05,West,269,0.0,2.0,76,0.00,,,0.00,WeatherCatV1.15B25,2013-05-10 08:04:00,
2013-05-10 01:09:00,64.5,56.8,30.05,West,269,0.0,0.0,76,0.00,,,0.00,WeatherCatV1.15B25,2013-05-10 08:09:00,
2013-05-10 01:14:00,64.3,56.6,30.05,West,269,0.0,1.0,76,0.00,,,0.00,WeatherCatV1.15B25,2013-05-10 08:14:00,
2013-05-10 01:19:00,64.1,56.7,30.05,West,269,0.0,0.0,77,0.00,,,0.00,WeatherCatV1.15B25,2013-05-10 08:19:00,
2013-05-10 01:24:00,64.0,56.6,30.05,West,270,0.0,0.0,77,0.00,,,0.00,WeatherCatV1.15B25,2013-05-10 08:24:00,
2013-05-10 01:29:00,63.8,56.4,30.05,West,270,0.0,0.0,77,0.00,,,0.00,WeatherCatV1.15B25,2013-05-10 08:29:00,
2013-05-10 01:34:00,63.6,56.3,30.05,West,270,0.0,0.0,77,0.00,,,0.00,WeatherCatV1.15B25,2013-05-10 08:34:00,
2013-05-10 01:39:00,63.4,56.4,30.05,West,269,0.0,0.0,78,0.00,,,0.00,WeatherCatV1.15B25,2013-05-10 08:39:00,
2013-05-10 01:44:00,63.3,56.3,30.05,West,270,0.0,0.0,78,0.00,,,0.00,WeatherCatV1.15B25,2013-05-10 08:44:00,
2013-05-10 01:49:00,63.1,56.1,30.05,West,270,0.0,0.0,78,0.00,,,0.00,WeatherCatV1.15B25,2013-05-10 08:49:00,
2013-05-10 01:54:00,62.9,55.9,30.05,West,270,0.0,0.0,78,0.00,,,0.00,WeatherCatV1.15B25,2013-05-10 08:54:00,
2013-05-10 01:59:00,62.7,56.1,30.05,West,270,0.0,0.0,79,0.00,,,0.00,WeatherCatV1.15B25,2013-05-10 08:59:00,
2013-05-10 02:04:00,62.3,55.7,30.05,West,270,0.0,0.0,79,0.00,,,0.00,WeatherCatV1.15B25,2013-05-10 09:04:00,
2013-05-10 02:09:00,62.2,55.9,30.04,West,270,0.0,0.0,80,0.00,,,0.00,WeatherCatV1.15B25,2013-05-10 09:09:00,
2013-05-10 02:14:00,62.0,55.8,30.04,West,269,0.0,0.0,80,0.00,,,0.00,WeatherCatV1.15B25,2013-05-10 09:14:00,
2013-05-10 02:19:00,61.8,55.6,30.05,West,269,0.0,0.0,80,0.00,,,0.00,WeatherCatV1.15B25,2013-05-10 09:19:00,
2013-05-10 02:24:00,61.6,55.7,30.05,West,270,0.0,0.0,81,0.00,,,0.00,WeatherCatV1.15B25,2013-05-10 09:24:00,
2013-05-10 02:29:00,61.4,55.5,30.04,West,270,0.0,0.0,81,0.00,,,0.00,WeatherCatV1.15B25,2013-05-10 09:29:00,
2013-05-10 02:34:00,61.3,55.4,30.05,West,269,0.0,0.0,81,0.00,,,0.00,WeatherCatV1.15B25,2013-05-10 09:34:00,
2013-05-10 02:39:00,61.2,55.3,30.05,West,270,0.0,0.0,81,0.00,,,0.00,WeatherCatV1.15B25,2013-05-10 09:39:00,
2013-05-10 02:44:00,61.1,55.2,30.04,West,270,0.0,0.0,81,0.00,,,0.00,WeatherCatV1.15B25,2013-05-10 09:44:00,
2013-05-10 02:49:00,60.9,55.0,30.05,West,269,0.0,0.0,81,0.00,,,0.00,WeatherCatV1.15B25,2013-05-10 09:49:00,
2013-05-10 02:54:00,60.7,54.8,30.05,West,270,0.0,0.0,81,0.00,,,0.00,WeatherCatV1.15B25,2013-05-10 09:54:00,
2013-05-10 02:59:00,60.6,54.7,30.05,West,269,0.0,0.0,81,0.00,,,0.00,WeatherCatV1.15B25,2013-05-10 09:59:00,
2013-05-10 03:04:00,60.4,54.5,30.05,West,270,0.0,0.0,81,0.00,,,0.00,WeatherCatV1.15B25,2013-05-10 10:04:00,
2013-05-10 03:09:00,60.2,54.7,30.05,West,269,0.0,0.0,82,0.00,,,0.00,WeatherCatV1.15B25,2013-05-10 10:09:00,
2013-05-10 03:14:00,60.0,54.5,30.05,West,270,0.0,0.0,82,0.00,,,0.00,WeatherCatV1.15B25,2013-05-10 10:14:00,
2013-05-10 03:19:00,59.9,54.4,30.05,West,270,0.0,0.0,82,0.00,,,0.00,WeatherCatV1.15B25,2013-05-10 10:19:00,
2013-05-10 03:24:00,59.7,54.2,30.05,West,270,0.0,0.0,82,0.00,,,0.00,WeatherCatV1.15B25,2013-05-10 10:24:00,
2013-05-10 03:29:00,59.6,54.4,30.05,West,270,0.0,0.0,83,0.00,,,0.00,WeatherCatV1.15B25,2013-05-10 10:29:00,
2013-05-10 03:34:00,59.5,54.3,30.05,West,270,0.0,0.0,83,0.00,,,0.00,WeatherCatV1.15B25,2013-05-10 10:34:00,
2013-05-10 03:39:00,59.3,54.1,30.05,West,269,0.0,0.0,83,0.00,,,0.00,WeatherCatV1.15B25,2013-05-10 10:39:00,
2013-05-10 03:44:00,59.2,54.0,30.05,West,270,0.0,0.0,83,0.00,,,0.00,WeatherCatV1.15B25,2013-05-10 10:44:00,
2013-05-10 03:49:00,59.1,53.9,30.05,West,270,0.0,0.0,83,0.00,,,0.00,WeatherCatV1.15B25,2013-05-10 10:49:00,
2013-05-10 03:54:00,59.0,54.2,30.05,West,270,0.0,0.0,84,0.00,,,0.00,WeatherCatV1.15B25,2013-05-10 10:54:00,
2013-05-10 03:59:00,59.0,54.2,30.05,West,270,0.0,0.0,84,0.00,,,0.00,WeatherCatV1.15B25,2013-05-10 10:59:00,
2013-05-10 04:04:00,58.9,53.7,30.05,West,270,0.0,0.0,83,0.00,,,0.00,WeatherCatV1.15B25,2013-05-10 11:04:00,
2013-05-10 04:09:00,58.8,53.6,30.05,West,270,0.0,0.0,83,0.00,,,0.00,WeatherCatV1.15B25,2013-05-10 11:09:00,
2013-05-10 04:14:00,58.6,53.8,30.05,West,269,0.0,0.0,84,0.00,,,0.00,WeatherCatV1.15B25,2013-05-10 11:14:00,
2013-05-10 04:19:00,58.5,53.7,30.05,West,270,0.0,0.0,84,0.00,,,0.00,WeatherCatV1.15B25,2013-05-10 11:19:00,
2013-05-10 04:24:00,58.5,53.7,30.05,West,270,0.0,0.0,84,0.00,,,0.00,WeatherCatV1.15B25,2013-05-10 11:24:00,
2013-05-10 04:29:00,58.4,53.6,30.05,West,270,0.0,0.0,84,0.00,,,0.00,WeatherCatV1.15B25,2013-05-10 11:29:00,
2013-05-10 04:34:00,58.4,53.6,30.05,West,270,0.0,0.0,84,0.00,,,0.00,WeatherCatV1.15B25,2013-05-10 11:34:00,
2013-05-10 04:39:00,58.3,53.5,30.05,West,270,0.0,0.0,84,0.00,,,0.00,WeatherCatV1.15B25,2013-05-10 11:39:00,
2013-05-10 04:44:00,58.2,53.4,30.05,West,269,0.0,0.0,84,0.00,,,0.00,WeatherCatV1.15B25,2013-05-10 11:44:00,
2013-05-10 04:49:00,58.1,53.3,30.05,West,270,0.0,0.0,84,0.00,,,0.00,WeatherCatV1.15B25,2013-05-10 11:49:00,
2013-05-10 04:54:00,58.0,53.2,30.05,West,270,0.0,0.0,84,0.00,,,0.00,WeatherCatV1.15B25,2013-05-10 11:54:00,
2013-05-10 04:59:00,57.9,53.1,30.05,West,270,0.0,0.0,84,0.00,,,0.00,WeatherCatV1.15B25,2013-05-10 11:59:00,
2013-05-10 05:04:00,57.7,52.9,30.05,West,269,0.0,0.0,84,0.00,,,0.00,WeatherCatV1.15B25,2013-05-10 12:04:00,
2013-05-10 05:09:00,57.6,52.8,30.05,West,269,0.0,0.0,84,0.00,,,0.00,WeatherCatV1.15B25,2013-05-10 12:09:00,
2013-05-10 05:14:00,57.4,52.6,30.05,West,270,0.0,0.0,84,0.00,,,0.00,WeatherCatV1.15B25,2013-05-10 12:14:00,
2013-05-10 05:19:00,57.3,52.5,30.06,West,269,0.0,0.0,84,0.00,,,0.00,WeatherCatV1.15B25,2013-05-10 12:19:00,
2013-05-10 05:24:00,57.1,52.3,30.05,West,269,0.0,0.0,84,0.00,,,0.00,WeatherCatV1.15B25,2013-05-10 12:24:00,
2013-05-10 05:29:00,57.0,52.5,30.05,West,270,0.0,0.0,85,0.00,,,0.00,WeatherCatV1.15B25,2013-05-10 12:29:00,
2013-05-10 05:34:00,56.8,52.0,30.05,West,270,0.0,0.0,84,0.00,,,0.00,WeatherCatV1.15B25,2013-05-10 12:34:00,
2013-05-10 05:39:00,56.6,52.1,30.05,West,269,0.0,0.0,85,0.00,,,0.00,WeatherCatV1.15B25,2013-05-10 12:39:00,
2013-05-10 05:44:00,56.5,52.0,30.05,West,270,0.0,0.0,85,0.00,,,0.00,WeatherCatV1.15B25,2013-05-10 12:44:00,
2013-05-10 05:49:00,56.4,51.9,30.05,West,270,0.0,0.0,85,0.00,,,0.00,WeatherCatV1.15B25,2013-05-10 12:49:00,
2013-05-10 05:54:00,56.3,52.2,30.06,West,269,0.0,0.0,86,0.00,,,0.00,WeatherCatV1.15B25,2013-05-10 12:54:00,
2013-05-10 05:59:00,56.1,52.0,30.06,West,270,0.0,0.0,86,0.00,,,0.00,WeatherCatV1.15B25,2013-05-10 12:59:00,
2013-05-10 06:04:00,56.0,51.9,30.06,West,270,0.0,0.0,86,0.00,,,0.00,WeatherCatV1.15B25,2013-05-10 13:04:00,
2013-05-10 06:09:00,55.9,51.8,30.06,West,270,0.0,0.0,86,0.00,,,0.00,WeatherCatV1.15B25,2013-05-10 13:09:00,
2013-05-10 06:14:00,55.8,51.7,30.06,West,269,0.0,0.0,86,0.00,,,0.00,WeatherCatV1.15B25,2013-05-10 13:14:00,
2013-05-10 06:19:00,55.7,51.9,30.06,West,269,0.0,0.0,87,0.00,,,0.00,WeatherCatV1.15B25,2013-05-10 13:19:00,
2013-05-10 06:24:00,55.6,52.1,30.06,West,270,0.0,0.0,88,0.00,,,0.00,WeatherCatV1.15B25,2013-05-10 13:24:00,
2013-05-10 06:29:00,55.6,52.1,30.06,West,269,0.0,0.0,88,0.00,,,0.00,WeatherCatV1.15B25,2013-05-10 13:29:00,
2013-05-10 06:34:00,55.5,52.0,30.06,West,269,0.0,1.0,88,0.00,,,0.00,WeatherCatV1.15B25,2013-05-10 13:34:00,
2013-05-10 06:39:00,55.6,52.4,30.07,West,270,0.0,0.0,89,0.00,,,0.00,WeatherCatV1.15B25,2013-05-10 13:39:00,
2013-05-10 06:44:00,55.6,52.4,30.07,West,270,0.0,0.0,89,0.00,,,0.00,WeatherCatV1.15B25,2013-05-10 13:44:00,
2013-05-10 06:49:00,55.9,53.0,30.07,West,270,0.0,0.0,90,0.00,,,0.00,WeatherCatV1.15B25,2013-05-10 13:49:00,
2013-05-10 06:54:00,56.2,53.3,30.07,West,269,0.0,0.0,90,0.00,,,0.00,WeatherCatV1.15B25,2013-05-10 13:54:00,
2013-05-10 06:59:00,56.5,53.6,30.07,West,270,0.0,0.0,90,0.00,,,0.00,WeatherCatV1.15B25,2013-05-10 13:59:00,
2013-05-10 07:04:00,56.7,53.8,30.07,West,270,0.0,1.0,90,0.00,,,0.00,WeatherCatV1.15B25,2013-05-10 14:04:00,
2013-05-10 07:09:00,57.0,54.1,30.07,West,270,0.0,0.0,90,0.00,,,0.00,WeatherCatV1.15B25,2013-05-10 14:09:00,
2013-05-10 07:14:00,57.5,54.3,30.07,West,269,0.0,0.0,89,0.00,,,0.00,WeatherCatV1.15B25,2013-05-10 14:14:00,
2013-05-10 07:19:00,57.9,54.4,30.07,West,270,0.0,0.0,88,0.00,,,0.00,WeatherCatV1.15B25,2013-05-10 14:19:00,
2013-05-10 07:24:00,58.4,54.2,30.08,West,274,0.0,2.0,86,0.00,,,0.00,WeatherCatV1.15B25,2013-05-10 14:24:00,
2013-05-10 07:29:00,58.9,54.7,30.08,West,273,0.0,0.0,86,0.00,,,0.00,WeatherCatV1.15B25,2013-05-10 14:29:00,
2013-05-10 07:34:00,59.4,54.9,30.08,West,277,0.0,2.0,85,0.00,,,0.00,WeatherCatV1.15B25,2013-05-10 14:34:00,
2013-05-10 07:39:00,60.0,55.1,30.08,West,276,0.0,0.0,84,0.00,,,0.00,WeatherCatV1.15B25,2013-05-10 14:39:00,
2013-05-10 07:44:00,60.6,55.1,30.08,West,277,0.0,1.0,82,0.00,,,0.00,WeatherCatV1.15B25,2013-05-10 14:44:00,
2013-05-10 07:49:00,61.1,54.9,30.08,NW,321,0.0,5.0,80,0.00,,,0.00,WeatherCatV1.15B25,2013-05-10 14:49:00,
2013-05-10 07:54:00,61.6,55.4,30.08,NW,321,0.0,1.0,80,0.00,,,0.00,WeatherCatV1.15B25,2013-05-10 14:54:00,
2013-05-10 07:59:00,62.2,55.3,30.08,NNW,329,0.0,3.0,78,0.00,,,0.00,WeatherCatV1.15B25,2013-05-10 14:59:00,
2013-05-10 08:04:00,62.8,55.5,30.08,NW,326,0.0,1.0,77,0.00,,,0.00,WeatherCatV1.15B25,2013-05-10 15:04:00,
2013-05-10 08:09:00,63.4,55.7,30.08,NNW,327,0.0,4.0,76,0.00,,,0.00,WeatherCatV1.15B25,2013-05-10 15:09:00,
2013-05-10 08:14:00,64.1,56.4,30.09,NW,326,0.0,1.0,76,0.00,,,0.00,WeatherCatV1.15B25,2013-05-10 15:14:00,
2013-05-10 08:19:00,64.6,56.5,30.09,NNW,327,2.0,3.0,75,0.00,,,0.00,WeatherCatV1.15B25,2013-05-10 15:19:00,
2013-05-10 08:24:00,65.2,56.7,30.09,NNW,329,0.0,2.0,74,0.00,,,0.00,WeatherCatV1.15B25,2013-05-10 15:24:00,
2013-05-10 08:29:00,65.7,55.6,30.09,NW,309,0.0,5.0,70,0.00,,,0.00,WeatherCatV1.15B25,2013-05-10 15:29:00,
2013-05-10 08:34:00,66.1,56.8,30.09,NW,315,0.0,4.0,72,0.00,,,0.00,WeatherCatV1.15B25,2013-05-10 15:34:00,
2013-05-10 08:39:00,66.5,56.4,30.09,NNW,330,0.0,1.0,70,0.00,,,0.00,WeatherCatV1.15B25,2013-05-10 15:39:00,
2013-05-10 08:44:00,67.1,56.2,30.09,NNW,330,3.0,6.0,68,0.00,,,0.00,WeatherCatV1.15B25,2013-05-10 15:44:00,
2013-05-10 08:49:00,67.4,56.5,30.09,NNW,331,1.0,4.0,68,0.00,,,0.00,WeatherCatV1.15B25,2013-05-10 15:49:00,
2013-05-10 08:54:00,67.8,56.4,30.09,NW,323,0.0,5.0,67,0.00,,,0.00,WeatherCatV1.15B25,2013-05-10 15:54:00,
2013-05-10 08:59:00,68.3,56.9,30.09,NW,324,3.0,6.0,67,0.00,,,0.00,WeatherCatV1.15B25,2013-05-10 15:59:00,
2013-05-10 09:04:00,68.3,56.5,30.09,NNW,333,4.0,4.0,66,0.00,,,0.00,WeatherCatV1.15B25,2013-05-10 16:04:00,
2013-05-10 09:09:00,68.5,57.1,30.10,NNW,327,0.0,3.0,67,0.00,,,0.00,WeatherCatV1.15B25,2013-05-10 16:09:00,
2013-05-10 09:14:00,69.1,57.3,30.10,NNW,338,1.0,6.0,66,0.00,,,0.00,WeatherCatV1.15B25,2013-05-10 16:14:00,
2013-05-10 09:19:00,69.5,57.6,30.09,NNW,333,3.0,3.0,66,0.00,,,0.00,WeatherCatV1.15B25,2013-05-10 16:19:00,
2013-05-10 09:24:00,69.9,58.0,30.10,NNW,342,0.0,1.0,66,0.00,,,0.00,WeatherCatV1.15B25,2013-05-10 16:24:00,
2013-05-10 09:29:00,70.6,57.8,30.10,NW,321,0.0,1.0,64,0.00,,,0.00,WeatherCatV1.15B25,2013-05-10 16:29:00,
2013-05-10 09:34:00,71.3,58.5,30.09,NW,321,1.0,1.0,64,0.00,,,0.00,WeatherCatV1.15B25,2013-05-10 16:34:00,
2013-05-10 09:39:00,71.7,58.4,30.09,NW,326,1.0,1.0,63,0.00,,,0.00,WeatherCatV1.15B25,2013-05-10 16:39:00,
2013-05-10 09:44:00,71.9,58.6,30.10,NW,322,2.0,3.0,63,0.00,,,0.00,WeatherCatV1.15B25,2013-05-10 16:44:00,
2013-05-10 09:49:00,71.9,57.2,30.10,NNW,330,3.0,6.0,60,0.00,,,0.00,WeatherCatV1.15B25,2013-05-10 16:49:00,
2013-05-10 09:54:00,71.7,57.5,30.10,NW,324,1.0,3.0,61,0.00,,,0.00,WeatherCatV1.15B25,2013-05-10 16:54:00,
2013-05-10 09:59:00,72.0,57.8,30.10,NW,325,2.0,4.0,61,0.00,,,0.00,WeatherCatV1.15B25,2013-05-10 16:59:00,
2013-05-10 10:04:00,72.2,58.9,30.10,NW,323,1.0,3.0,63,0.00,,,0.00,WeatherCatV1.15B25,2013-05-10 17:04:00,
2013-05-10 10:09:00,72.6,57.9,30.10,NNW,329,4.0,5.0,60,0.00,,,0.00,WeatherCatV1.15B25,2013-05-10 17:09:00,
2013-05-10 10:14:00,72.7,59.4,30.10,NNW,340,1.0,1.0,63,0.00,,,0.00,WeatherCatV1.15B25,2013-05-10 17:14:00,
2013-05-10 10:19:00,73.6,58.8,30.10,NNW,336,1.0,4.0,60,0.00,,,0.00,WeatherCatV1.15B25,2013-05-10 17:19:00,
2013-05-10 10:24:00,73.7,58.0,30.10,NNW,348,5.0,5.0,58,0.00,,,0.00,WeatherCatV1.15B25,2013-05-10 17:24:00,
2013-05-10 10:29:00,73.8,59.0,30.10,NNW,346,1.0,1.0,60,0.00,,,0.00,WeatherCatV1.15B25,2013-05-10 17:29:00,
2013-05-10 10:34:00,74.3,58.5,30.10,NW,326,0.0,5.0,58,0.00,,,0.00,WeatherCatV1.15B25,2013-05-10 17:34:00,
2013-05-10 10:39:00,74.5,58.7,30.10,NNW,340,4.0,6.0,58,0.00,,,0.00,WeatherCatV1.15B25,2013-05-10 17:39:00,
2013-05-10 10:44:00,74.4,58.2,30.10,NNW,329,0.0,7.0,57,0.00,,,0.00,WeatherCatV1.15B25,2013-05-10 17:44:00,
2013-05-10 10:49:00,75.0,60.2,30.10,NW,316,1.0,6.0,60,0.00,,,0.00,WeatherCatV1.15B25,2013-05-10 17:49:00,
2013-05-10 10:54:00,75.3,58.5,30.10,NW,321,1.0,4.0,56,0.00,,,0.00,WeatherCatV1.15B25,2013-05-10 17:54:00,
2013-05-10 10:59:00,75.6,59.3,30.10,NW,323,0.0,4.0,57,0.00,,,0.00,WeatherCatV1.15B25,2013-05-10 17:59:00,
2013-05-10 11:04:00,76.3,59.9,30.10,WNW,300,0.0,4.0,57,0.00,,,0.00,WeatherCatV1.15B25,2013-05-10 18:04:00,
2013-05-10 11:09:00,76.6,58.7,30.10,NNW,330,0.0,6.0,54,0.00,,,0.00,WeatherCatV1.15B25,2013-05-10 18:09:00,
2013-05-10 11:14:00,76.5,58.6,30.10,NW,321,1.0,4.0,54,0.00,,,0.00,WeatherCatV1.15B25,2013-05-10 18:14:00,
2013-05-10 11:19:00,76.6,60.2,30.09,NW,318,0.0,6.0,57,0.00,,,0.00,WeatherCatV1.15B25,2013-05-10 18:19:00,
2013-05-10 11:24:00,77.0,58.5,30.09,North,0,1.0,5.0,53,0.00,,,0.00,WeatherCatV1.15B25,2013-05-10 18:24:00,
2013-05-10 11:29:00,77.2,59.2,30.09,NNW,348,0.0,6.0,54,0.00,,,0.00,WeatherCatV1.15B25,2013-05-10 18:29:00,
2013-05-10 11:34:00,77.4,60.5,30.09,NNW,332,1.0,5.0,56,0.00,,,0.00,WeatherCatV1.15B25,2013-05-10 18:34:00,
2013-05-10 11:39:00,77.4,58.4,30.09,North,11,1.0,7.0,52,0.00,,,0.00,WeatherCatV1.15B25,2013-05-10 18:39:00,
2013-05-10 11:44:00,77.7,58.7,30.09,NW,325,1.0,5.0,52,0.00,,,0.00,WeatherCatV1.15B25,2013-05-10 18:44:00,
2013-05-10 11:49:00,78.2,60.2,30.09,NW,322,0.0,3.0,54,0.00,,,0.00,WeatherCatV1.15B25,2013-05-10 18:49:00,
2013-05-10 11:54:00,78.9,59.8,30.09,NW,319,0.0,3.0,52,0.00,,,0.00,WeatherCatV1.15B25,2013-05-10 18:54:00,
2013-05-10 11:59:00,79.4,59.1,30.08,NW,322,1.0,5.0,50,0.00,,,0.00,WeatherCatV1.15B25,2013-05-10 18:59:00,
2013-05-10 12:04:00,79.5,59.2,30.08,NW,323,1.0,5.0,50,0.00,,,0.00,WeatherCatV1.15B25,2013-05-10 19:04:00,
2013-05-10 12:09:00,79.4,59.1,30.08,North,350,3.0,3.0,50,0.00,,,0.00,WeatherCatV1.15B25,2013-05-10 19:09:00,
2013-05-10 12:14:00,79.6,59.3,30.08,North,350,2.0,3.0,50,0.00,,,0.00,WeatherCatV1.15B25,2013-05-10 19:14:00,
2013-05-10 12:19:00,79.5,60.8,30.08,NNE,16,6.0,6.0,53,0.00,,,0.00,WeatherCatV1.15B25,2013-05-10 19:19:00,
2013-05-10 12:24:00,79.7,60.5,30.08,NNW,345,1.0,4.0,52,0.00,,,0.00,WeatherCatV1.15B25,2013-05-10 19:24:00,
2013-05-10 12:29:00,80.5,61.2,30.07,WNW,291,0.0,0.0,52,0.00,,,0.00,WeatherCatV1.15B25,2013-05-10 19:29:00,
2013-05-10 12:34:00,81.0,60.0,30.07,West,270,0.0,2.0,49,0.00,,,0.00,WeatherCatV1.15B25,2013-05-10 19:34:00,
2013-05-10 12:39:00,81.0,60.0,30.07,North,355,0.0,6.0,49,0.00,,,0.00,WeatherCatV1.15B25,2013-05-10 19:39:00,
2013-05-10 12:44:00,80.9,59.9,30.07,North,355,0.0,3.0,49,0.00,,,0.00,WeatherCatV1.15B25,2013-05-10 19:44:00,
2013-05-10 12:49:00,80.9,61.0,30.07,NW,323,0.0,1.0,51,0.00,,,0.00,WeatherCatV1.15B25,2013-05-10 19:49:00,
2013-05-10 12:54:00,81.4,60.4,30.07,North,9,0.0,2.0,49,0.00,,,0.00,WeatherCatV1.15B25,2013-05-10 19:54:00,
2013-05-10 12:59:00,81.7,60.7,30.07,West,269,2.0,2.0,49,0.00,,,0.00,WeatherCatV1.15B25,2013-05-10 19:59:00,
2013-05-10 13:04:00,81.9,60.8,30.06,SSW,213,2.0,2.0,49,0.00,,,0.00,WeatherCatV1.15B25,2013-05-10 20:04:00,
2013-05-10 13:09:00,82.1,62.7,30.06,WSW,246,0.0,5.0,52,0.00,,,0.00,WeatherCatV1.15B25,2013-05-10 20:09:00,
2013-05-10 13:14:00,82.4,61.3,30.06,SW,229,1.0,5.0,49,0.00,,,0.00,WeatherCatV1.15B25,2013-05-10 20:14:00,
2013-05-10 13:19:00,82.9,62.9,30.06,SW,236,0.0,1.0,51,0.00,,,0.00,WeatherCatV1.15B25,2013-05-10 20:19:00,
2013-05-10 13:24:00,83.0,61.8,30.06,WSW,240,0.0,3.0,49,0.00,,,0.00,WeatherCatV1.15B25,2013-05-10 20:24:00,
2013-05-10 13:29:00,82.8,60.5,30.06,North,0,3.0,4.0,47,0.00,,,0.00,WeatherCatV1.15B25,2013-05-10 20:29:00,
2013-05-10 13:34:00,82.5,60.8,30.06,North,0,0.0,3.0,48,0.00,,,0.00,WeatherCatV1.15B25,2013-05-10 20:34:00,
2013-05-10 13:39:00,82.7,59.8,30.05,SSW,207,1.0,5.0,46,0.00,,,0.00,WeatherCatV1.15B25,2013-05-10 20:39:00,
2013-05-10 13:44:00,83.1,60.1,30.05,NW,324,6.0,6.0,46,0.00,,,0.00,WeatherCatV1.15B25,2013-05-10 20:44:00,
2013-05-10 13:49:00,83.2,60.2,30.05,NW,319,0.0,1.0,46,0.00,,,0.00,WeatherCatV1.15B25,2013-05-10 20:49:00,
2013-05-10 13:54:00,83.6,60.6,30.05,NW,304,1.0,4.0,46,0.00,,,0.00,WeatherCatV1.15B25,2013-05-10 20:54:00,
2013-05-10 13:59:00,83.8,62.6,30.05,NW,321,3.0,3.0,49,0.00,,,0.00,WeatherCatV1.15B25,2013-05-10 20:59:00,
2013-05-10 14:04:00,83.8,59.5,30.05,NNW,329,0.0,1.0,44,0.00,,,0.00,WeatherCatV1.15B25,2013-05-10 21:04:00,
2013-05-10 14:09:00,84.2,62.3,30.05,NNW,329,0.0,3.0,48,0.00,,,0.00,WeatherCatV1.15B25,2013-05-10 21:09:00,
2013-05-10 14:14:00,84.4,61.3,30.04,NNW,331,0.0,3.0,46,0.00,,,0.00,WeatherCatV1.15B25,2013-05-10 21:14:00,
2013-05-10 14:19:00,84.0,61.0,30.04,NNW,333,0.0,2.0,46,0.00,,,0.00,WeatherCatV1.15B25,2013-05-10 21:19:00,
2013-05-10 14:24:00,83.5,60.5,30.04,NNW,339,2.0,4.0,46,0.00,,,0.00,WeatherCatV1.15B25,2013-05-10 21:24:00,
2013-05-10 14:29:00,83.8,60.8,30.04,NNW,332,4.0,8.0,46,0.00,,,0.00,WeatherCatV1.15B25,2013-05-10 21:29:00,
2013-05-10 14:34:00,83.6,60.6,30.04,NNW,348,0.0,2.0,46,0.00,,,0.00,WeatherCatV1.15B25,2013-05-10 21:34:00,
2013-05-10 14:39:00,84.1,64.0,30.04,NW,315,0.0,2.0,51,0.00,,,0.00,WeatherCatV1.15B25,2013-05-10 21:39:00,
2013-05-10 14:44:00,84.8,62.9,30.04,WSW,247,0.0,3.0,48,0.00,,,0.00,WeatherCatV1.15B25,2013-05-10 21:44:00,
2013-05-10 14:49:00,85.2,61.4,30.04,SW,230,3.0,7.0,45,0.00,,,0.00,WeatherCatV1.15B25,2013-05-10 21:49:00,
2013-05-10 14:54:00,85.5,61.1,30.03,NNW,342,1.0,4.0,44,0.00,,,0.00,WeatherCatV1.15B25,2013-05-10 21:54:00,
2013-05-10 14:58:00,85.8,61.3,30.03,NNW,338,3.0,6.0,44,0.00,,,0.00,WeatherCatV1.15B25,2013-05-10 21:58:00,
2013-05-10 15:03:00,85.5,62.3,30.03,SW,231,0.0,6.0,46,0.00,,,0.00,WeatherCatV1.15B25,2013-05-10 22:03:00,
2013-05-10 15:08:00,85.6,61.8,30.03,SSW,209,3.0,5.0,45,0.00,,,0.00,WeatherCatV1.15B25,2013-05-10 22:08:00,
2013-05-10 15:13:00,85.7,61.9,30.03,SW,215,0.0,1.0,45,0.00,,,0.00,WeatherCatV1.15B25,2013-05-10 22:13:00,
2013-05-10 15:18:00,85.6,60.5,30.02,North,0,0.0,4.0,43,0.00,,,0.00,WeatherCatV1.15B25,2013-05-10 22:18:00,
2013-05-10 15:23:00,85.1,61.3,30.02,NNE,27,0.0,1.0,45,0.00,,,0.00,WeatherCatV1.15B25,2013-05-10 22:23:00,
2013-05-10 15:28:00,85.7,61.9,30.02,SW,229,0.0,1.0,45,0.00,,,0.00,WeatherCatV1.15B25,2013-05-10 22:28:00,
2013-05-10 15:33:00,86.4,61.2,30.01,West,273,0.0,1.0,43,0.00,,,0.00,WeatherCatV1.15B25,2013-05-10 22:33:00,
2013-05-10 15:38:00,86.5,61.3,30.02,North,355,4.0,6.0,43,0.00,,,0.00,WeatherCatV1.15B25,2013-05-10 22:38:00,
2013-05-10 15:43:00,86.5,62.0,30.01,North,355,0.0,3.0,44,0.00,,,0.00,WeatherCatV1.15B25,2013-05-10 22:43:00,
2013-05-10 15:48:00,86.9,61.7,30.01,WSW,250,3.0,3.0,43,0.00,,,0.00,WeatherCatV1.15B25,2013-05-10 22:48:00,
2013-05-10 15:53:00,87.2,61.3,30.01,WSW,254,0.0,6.0,42,0.00,,,0.00,WeatherCatV1.15B25,2013-05-10 22:53:00,
2013-05-10 15:58:00,87.3,60.0,30.01,NW,319,0.0,1.0,40,0.00,,,0.00,WeatherCatV1.15B25,2013-05-10 22:58:00,
2013-05-10 16:03:00,86.7,60.8,30.01,North,5,0.0,1.0,42,0.00,,,0.00,WeatherCatV1.15B25,2013-05-10 23:03:00,
2013-05-10 16:08:00,86.8,62.2,30.00,West,265,0.0,1.0,44,0.00,,,0.00,WeatherCatV1.15B25,2013-05-10 23:08:00,
2013-05-10 16:13:00,87.1,61.8,30.00,SSW,213,0.0,5.0,43,0.00,,,0.00,WeatherCatV1.15B25,2013-05-10 23:13:00,
2013-05-10 16:18:00,87.3,60.7,30.00,WSW,248,0.0,4.0,41,0.00,,,0.00,WeatherCatV1.15B25,2013-05-10 23:18:00,
2013-05-10 16:23:00,87.7,61.0,30.00,NNW,334,4.0,4.0,41,0.00,,,0.00,WeatherCatV1.15B25,2013-05-10 23:23:00,
2013-05-10 16:28:00,88.0,61.3,30.00,WSW,250,0.0,4.0,41,0.00,,,0.00,WeatherCatV1.15B25,2013-05-10 23:28:00,
2013-05-10 16:29:00,88.0,59.9,30.00,WSW,243,0.0,4.0,39,0.00,,,0.00,WeatherCatV1.15B25,2013-05-10 23:29:00,
2013-05-10 16:34:00,88.2,60.8,30.00,NNW,346,0.0,4.0,40,0.00,,,0.00,WeatherCatV1.15B25,2013-05-10 23:34:00,
2013-05-10 16:39:00,88.0,60.6,30.00,West,271,0.0,2.0,40,0.00,,,0.00,WeatherCatV1.15B25,2013-05-10 23:39:00,
2013-05-10 16:44:00,88.2,61.5,30.00,WSW,257,0.0,6.0,41,0.00,,,0.00,WeatherCatV1.15B25,2013-05-10 23:44:00,
2013-05-10 16:49:00,88.2,60.1,29.99,West,265,0.0,0.0,39,0.00,,,0.00,WeatherCatV1.15B25,2013-05-10 23:49:00,
2013-05-10 16:54:00,88.4,61.0,29.99,WNW,286,0.0,4.0,40,0.00,,,0.00,WeatherCatV1.15B25,2013-05-10 23:54:00,
2013-05-10 16:59:00,88.4,60.3,29.99,NNW,342,0.0,5.0,39,0.00,,,0.00,WeatherCatV1.15B25,2013-05-10 23:59:00,
2013-05-10 17:04:00,88.2,59.3,29.99,WSW,241,1.0,5.0,38,0.00,,,0.00,WeatherCatV1.15B25,2013-05-11 00:04:00,
2013-05-10 17:09:00,87.9,60.5,29.99,SW,236,1.0,2.0,40,0.00,,,0.00,WeatherCatV1.15B25,2013-05-11 00:09:00,
2013-05-10 17:14:00,87.8,61.1,29.99,SW,222,2.0,2.0,41,0.00,,,0.00,WeatherCatV1.15B25,2013-05-11 00:14:00,
2013-05-10 17:19:00,87.8,61.1,29.99,WSW,237,0.0,2.0,41,0.00,,,0.00,WeatherCatV1.15B25,2013-05-11 00:19:00,
2013-05-10 17:24:00,87.8,60.4,29.99,WNW,296,0.0,0.0,40,0.00,,,0.00,WeatherCatV1.15B25,2013-05-11 00:24:00,
2013-05-10 17:29:00,87.8,60.4,29.99,NNW,331,0.0,2.0,40,0.00,,,0.00,WeatherCatV1.15B25,2013-05-11 00:29:00,
2013-05-10 17:34:00,87.8,59.7,29.99,NNW,331,0.0,2.0,39,0.00,,,0.00,WeatherCatV1.15B25,2013-05-11 00:34:00,
2013-05-10 17:39:00,87.7,60.3,29.99,WNW,284,0.0,2.0,40,0.00,,,0.00,WeatherCatV1.15B25,2013-05-11 00:39:00,
2013-05-10 17:44:00,87.5,60.9,29.99,West,264,0.0,1.0,41,0.00,,,0.00,WeatherCatV1.15B25,2013-05-11 00:44:00,
2013-05-10 17:49:00,87.4,60.8,29.99,West,265,0.0,1.0,41,0.00,,,0.00,WeatherCatV1.15B25,2013-05-11 00:49:00,
2013-05-10 17:54:00,87.4,60.1,29.99,West,279,1.0,3.0,40,0.00,,,0.00,WeatherCatV1.15B25,2013-05-11 00:54:00,
2013-05-10 17:59:00,87.4,60.8,29.99,WSW,257,0.0,5.0,41,0.00,,,0.00,WeatherCatV1.15B25,2013-05-11 00:59:00,
2013-05-10 18:04:00,87.2,60.6,29.99,WSW,256,0.0,0.0,41,0.00,,,0.00,WeatherCatV1.15B25,2013-05-11 01:04:00,
2013-05-10 18:09:00,87.2,61.3,29.99,WSW,257,0.0,2.0,42,0.00,,,0.00,WeatherCatV1.15B25,2013-05-11 01:09:00,
2013-05-10 18:14:00,87.2,61.9,29.99,WSW,240,2.0,3.0,43,0.00,,,0.00,WeatherCatV1.15B25,2013-05-11 01:14:00,
2013-05-10 18:19:00,87.0,61.1,29.98,WSW,251,0.0,3.0,42,0.00,,,0.00,WeatherCatV1.15B25,2013-05-11 01:19:00,
2013-05-10 18:24:00,86.8,61.6,29.99,WSW,249,0.0,3.0,43,0.00,,,0.00,WeatherCatV1.15B25,2013-05-11 01:24:00,
2013-05-10 18:29:00,86.6,60.7,29.99,WSW,249,0.0,0.0,42,0.00,,,0.00,WeatherCatV1.15B25,2013-05-11 01:29:00,
2013-05-10 18:34:00,86.3,60.5,29.99,WSW,246,0.0,5.0,42,0.00,,,0.00,WeatherCatV1.15B25,2013-05-11 01:34:00,
2013-05-10 18:39:00,86.0,61.5,29.98,WSW,246,0.0,1.0,44,0.00,,,0.00,WeatherCatV1.15B25,2013-05-11 01:39:00,
2013-05-10 18:44:00,85.8,61.3,29.98,WSW,246,0.0,1.0,44,0.00,,,0.00,WeatherCatV1.15B25,2013-05-11 01:44:00,
2013-05-10 18:49:00,85.7,61.2,29.99,WSW,246,0.0,1.0,44,0.00,,,0.00,WeatherCatV1.15B25,2013-05-11 01:49:00,
2013-05-10 18:54:00,85.3,60.9,29.99,WSW,244,0.0,3.0,44,0.00,,,0.00,WeatherCatV1.15B25,2013-05-11 01:54:00,
2013-05-10 18:59:00,85.0,61.2,29.99,WSW,246,1.0,5.0,45,0.00,,,0.00,WeatherCatV1.15B25,2013-05-11 01:59:00,
2013-05-10 19:04:00,84.7,61.6,29.98,WSW,246,0.0,1.0,46,0.00,,,0.00,WeatherCatV1.15B25,2013-05-11 02:04:00,
2013-05-10 19:09:00,84.1,61.1,29.99,WSW,245,0.0,1.0,46,0.00,,,0.00,WeatherCatV1.15B25,2013-05-11 02:09:00,
2013-05-10 19:14:00,83.6,60.6,29.99,WSW,246,0.0,1.0,46,0.00,,,0.00,WeatherCatV1.15B25,2013-05-11 02:14:00,
2013-05-10 19:19:00,83.1,60.8,29.99,WSW,245,0.0,0.0,47,0.00,,,0.00,WeatherCatV1.15B25,2013-05-11 02:19:00,
2013-05-10 19:24:00,82.7,61.0,29.99,WSW,245,0.0,0.0,48,0.00,,,0.00,WeatherCatV1.15B25,2013-05-11 02:24:00,
2013-05-10 19:29:00,82.1,61.0,29.99,WSW,245,0.0,1.0,49,0.00,,,0.00,WeatherCatV1.15B25,2013-05-11 02:29:00,
2013-05-10 19:34:00,81.6,61.1,29.99,WSW,245,0.0,1.0,50,0.00,,,0.00,WeatherCatV1.15B25,2013-05-11 02:34:00,
2013-05-10 19:39:00,81.1,61.8,29.99,WSW,245,0.0,0.0,52,0.00,,,0.00,WeatherCatV1.15B25,2013-05-11 02:39:00,
2013-05-10 19:44:00,80.7,61.4,30.00,WSW,245,0.0,0.0,52,0.00,,,0.00,WeatherCatV1.15B25,2013-05-11 02:44:00,
2013-05-10 19:49:00,80.2,61.5,30.00,WSW,245,0.0,0.0,53,0.00,,,0.00,WeatherCatV1.15B25,2013-05-11 02:49:00,
2013-05-10 19:54:00,79.6,61.5,30.00,WSW,245,0.0,0.0,54,0.00,,,0.00,WeatherCatV1.15B25,2013-05-11 02:54:00,
2013-05-10 19:59:00,78.8,61.2,30.00,WSW,245,0.0,1.0,55,0.00,,,0.00,WeatherCatV1.15B25,2013-05-11 02:59:00,
2013-05-10 20:04:00,78.2,61.2,30.00,WSW,245,1.0,1.0,56,0.00,,,0.00,WeatherCatV1.15B25,2013-05-11 03:04:00,
2013-05-10 20:09:00,77.8,61.3,30.00,WSW,245,0.0,0.0,57,0.00,,,0.00,WeatherCatV1.15B25,2013-05-11 03:09:00,
2013-05-10 20:14:00,77.4,61.0,30.00,WSW,245,0.0,0.0,57,0.00,,,0.00,WeatherCatV1.15B25,2013-05-11 03:14:00,
2013-05-10 20:19:00,76.9,61.0,30.00,WSW,245,0.0,0.0,58,0.00,,,0.00,WeatherCatV1.15B25,2013-05-11 03:19:00,
2013-05-10 20:24:00,76.5,61.1,30.01,WSW,245,0.0,0.0,59,0.00,,,0.00,WeatherCatV1.15B25,2013-05-11 03:24:00,
2013-05-10 20:29:00,76.0,61.1,30.01,WSW,245,0.0,0.0,60,0.00,,,0.00,WeatherCatV1.15B25,2013-05-11 03:29:00,
2013-05-10 20:34:00,75.6,60.7,30.01,WSW,245,0.0,0.0,60,0.00,,,0.00,WeatherCatV1.15B25,2013-05-11 03:34:00,
2013-05-10 20:39:00,75.2,60.8,30.01,WSW,245,0.0,0.0,61,0.00,,,0.00,WeatherCatV1.15B25,2013-05-11 03:39:00,
2013-05-10 20:44:00,74.6,60.7,30.01,WSW,245,0.0,0.0,62,0.00,,,0.00,WeatherCatV1.15B25,2013-05-11 03:44:00,
2013-05-10 20:49:00,74.3,60.4,30.01,WSW,245,0.0,0.0,62,0.00,,,0.00,WeatherCatV1.15B25,2013-05-11 03:49:00,
2013-05-10 20:54:00,73.9,60.5,30.01,WSW,245,0.0,0.0,63,0.00,,,0.00,WeatherCatV1.15B25,2013-05-11 03:54:00,
2013-05-10 20:59:00,73.5,60.6,30.01,WSW,245,0.0,0.0,64,0.00,,,0.00,WeatherCatV1.15B25,2013-05-11 03:59:00,
2013-05-10 21:01:00,73.3,60.4,30.01,WSW,245,0.0,0.0,64,0.00,,,0.00,WeatherCatV1.15B25,2013-05-11 04:01:00,
2013-05-10 21:06:00,73.0,60.5,30.01,WSW,245,0.0,0.0,65,0.00,,,0.00,WeatherCatV1.15B25,2013-05-11 04:06:00,
2013-05-10 21:11:00,72.9,60.0,30.02,WSW,245,0.0,0.0,64,0.00,,,0.00,WeatherCatV1.15B25,2013-05-11 04:11:00,
2013-05-10 21:16:00,72.6,59.7,30.02,WSW,245,0.0,0.0,64,0.00,,,0.00,WeatherCatV1.15B25,2013-05-11 04:16:00,
2013-05-10 21:21:00,72.4,60.0,30.02,WSW,245,0.0,0.0,65,0.00,,,0.00,WeatherCatV1.15B25,2013-05-11 04:21:00,
2013-05-10 21:26:00,72.1,60.1,30.03,WSW,245,0.0,0.0,66,0.00,,,0.00,WeatherCatV1.15B25,2013-05-11 04:26:00,
2013-05-10 21:31:00,71.9,60.3,30.03,WSW,245,0.0,0.0,67,0.00,,,0.00,WeatherCatV1.15B25,2013-05-11 04:31:00,
2013-05-10 21:33:00,71.8,60.2,30.03,WSW,245,0.0,0.0,67,0.00,,,0.00,WeatherCatV1.15B25,2013-05-11 04:33:00,
2013-05-10 21:38:00,71.4,60.3,30.03,WSW,245,0.0,0.0,68,0.00,,,0.00,WeatherCatV1.15B25,2013-05-11 04:38:00,
2013-05-10 21:43:00,71.2,60.5,30.03,WSW,245,0.0,0.0,69,0.00,,,0.00,WeatherCatV1.15B25,2013-05-11 04:43:00,
2013-05-10 21:48:00,70.9,60.6,30.03,WSW,245,0.0,0.0,70,0.00,,,0.00,WeatherCatV1.15B25,2013-05-11 04:48:00,
2013-05-10 21:53:00,70.7,60.8,30.03,WSW,245,0.0,0.0,71,0.00,,,0.00,WeatherCatV1.15B25,2013-05-11 04:53:00,
2013-05-10 21:58:00,70.5,61.0,30.03,WSW,245,0.0,0.0,72,0.00,,,0.00,WeatherCatV1.15B25,2013-05-11 04:58:00,
2013-05-10 22:03:00,70.3,60.8,30.03,WSW,245,0.0,0.0,72,0.00,,,0.00,WeatherCatV1.15B25,2013-05-11 05:03:00,
2013-05-10 22:08:00,70.2,60.7,30.03,WSW,245,0.0,0.0,72,0.00,,,0.00,WeatherCatV1.15B25,2013-05-11 05:08:00,
2013-05-10 22:13:00,70.1,60.2,30.03,WSW,245,0.0,0.0,71,0.00,,,0.00,WeatherCatV1.15B25,2013-05-11 05:13:00,
2013-05-10 22:18:00,70.0,60.5,30.03,WSW,245,0.0,0.0,72,0.00,,,0.00,WeatherCatV1.15B25,2013-05-11 05:18:00,
2013-05-10 22:23:00,69.9,60.5,30.03,WSW,245,0.0,0.0,72,0.00,,,0.00,WeatherCatV1.15B25,2013-05-11 05:23:00,
2013-05-10 22:28:00,69.8,60.7,30.03,WSW,245,0.0,0.0,73,0.00,,,0.00,WeatherCatV1.15B25,2013-05-11 05:28:00,
2013-05-10 22:33:00,69.7,60.6,30.03,WSW,245,0.0,0.0,73,0.00,,,0.00,WeatherCatV1.15B25,2013-05-11 05:33:00,
2013-05-10 22:38:00,69.6,60.5,30.03,WSW,245,0.0,0.0,73,0.00,,,0.00,WeatherCatV1.15B25,2013-05-11 05:38:00,
2013-05-10 22:43:00,69.6,60.5,30.03,WSW,245,0.0,0.0,73,0.00,,,0.00,WeatherCatV1.15B25,2013-05-11 05:43:00,
2013-05-10 22:48:00,69.6,60.5,30.04,WSW,245,0.0,0.0,73,0.00,,,0.00,WeatherCatV1.15B25,2013-05-11 05:48:00,
2013-05-10 22:53:00,69.6,60.5,30.04,WSW,245,0.0,0.0,73,0.00,,,0.00,WeatherCatV1.15B25,2013-05-11 05:53:00,
2013-05-10 22:58:00,69.5,60.1,30.04,WSW,245,0.0,0.0,72,0.00,,,0.00,WeatherCatV1.15B25,2013-05-11 05:58:00,
2013-05-10 23:03:00,69.4,60.0,30.04,WSW,245,0.0,0.0,72,0.00,,,0.00,WeatherCatV1.15B25,2013-05-11 06:03:00,
2013-05-10 23:08:00,69.2,60.2,30.04,WSW,245,0.0,0.0,73,0.00,,,0.00,WeatherCatV1.15B25,2013-05-11 06:08:00,
2013-05-10 23:13:00,69.1,60.8,30.04,WSW,245,0.0,0.0,75,0.00,,,0.00,WeatherCatV1.15B25,2013-05-11 06:13:00,
2013-05-10 23:18:00,68.8,60.5,30.04,WSW,245,0.0,0.0,75,0.00,,,0.00,WeatherCatV1.15B25,2013-05-11 06:18:00,
2013-05-10 23:23:00,68.6,60.3,30.04,WSW,245,0.0,0.0,75,0.00,,,0.00,WeatherCatV1.15B25,2013-05-11 06:23:00,
2013-05-10 23:28:00,68.4,59.8,30.04,WSW,245,0.0,0.0,74,0.00,,,0.00,WeatherCatV1.15B25,2013-05-11 06:28:00,
2013-05-10 23:33:00,68.2,60.3,30.05,WSW,245,0.0,0.0,76,0.00,,,0.00,WeatherCatV1.15B25,2013-05-11 06:33:00,
2013-05-10 23:38:00,68.1,60.6,30.05,WSW,245,0.0,0.0,77,0.00,,,0.00,WeatherCatV1.15B25,2013-05-11 06:38:00,
2013-05-10 23:43:00,67.8,59.9,30.04,WSW,245,0.0,0.0,76,0.00,,,0.00,WeatherCatV1.15B25,2013-05-11 06:43:00,
2013-05-10 23:48:00,67.6,59.8,30.04,WSW,245,0.0,0.0,76,0.00,,,0.00,WeatherCatV1.15B25,2013-05-11 06:48:00,
2013-05-10 23:53:00,67.4,59.6,30.04,WSW,245,0.0,0.0,76,0.00,,,0.00,WeatherCatV1.15B25,2013-05-11 06:53:00,
2013-05-10 23:58:00,67.1,59.3,30.04,WSW,245,0.0,0.0,76,0.00,,,0.00,WeatherCatV1.15B25,2013-05-11 06:58:00,